Tracking 27188 objects as of 1-Apr-2023
HD Live streaming from Space Station
objects crossing your sky now

STARLINK-30061

Track STARLINK-30061 now!
10-day predictions
STARLINK-30061 is classified as:


NORAD ID: 55698
Int'l Code: 2023-026D
Perigee: 370.9 km
Apogee: 372.5 km
Inclination: 43.0 °
Period: 91.8 minutes
Semi major axis: 6742 km
RCS: Unknown
Launch date: February 27, 2023
Source: United States (US)
Launch site: AIR FORCE EASTERN TEST RANGE (AFETR)
Your satellite tracking list
Your tracking list is empty




NASA's NSSDC Master Catalog

Two Line Element Set (TLE):
1 55698U 23026D   23091.18108494  .00163692  00000-0  14085-2 0  9993
2 55698  43.0001  90.8519 0001188 268.9669  91.1062 15.68038009  6071
Source of the keplerian elements: AFSPC